Change the Weather History Date:

Thursday, November 15, 2012

  Actual Average Record
Temperature  
Mean Temperature 35 °F -  
Max Temperature 44 °F 49 °F 68 °F (2001)
Min Temperature 26 °F 34 °F 23 °F (1996)
Degree Days  
Heating Degree Days 30    
Moisture  
Dew Point 27 °F    
Average Humidity 75    
Maximum Humidity 92    
Minimum Humidity 50    
Precipitation  
Precipitation 0.00 in - - ()
Sea Level Pressure  
Sea Level Pressure 30.39 in    
Wind  
Wind Speed 1 mph (ENE)    
Max Wind Speed 6 mph    
Max Gust Speed -    
Visibility 10 miles    
Events      
Averages and records for this station are not official NWS values.
T = Trace of Precipitation, MM = Missing Value Source: NWS Daily Summary

Daily Weather History Graph

Daily Weather History Graph

Search for Another Location

Airport or City:

Trip Planner

Search our weather history database for the weather conditions in past years. The results will help you decide how hot, cold, wet, or windy it might be!

Date:

Astronomy

Nov. 15, 2012 Rise Set
Actual Time 6:52 AM EST 4:48 PM EST
Civil Twilight 6:23 AM EST 5:17 PM EST
Nautical Twilight 5:50 AM EST 5:50 PM EST
Astronomical Twilight 5:18 AM EST 6:23 PM EST
Moon 8:46 AM EST (11/15) 6:37 PM EST (11/15)
Length of Visible Light 10h 54m
Length of Day
9h 55m
Waxing Crescent, 5% of the Moon is Illuminated
Nov 15
Waxing Crescent
Nov 20
First Quarter
Nov 28
Full
Dec 6
Last Quarter
Dec 13
New

Hourly Weather History & Observations

Time (EST) Temp. Windchill Dew Point Humidity Pressure Visibility Wind Dir Wind Speed Gust Speed Precip Events Conditions
12:55 AM 27.7 °F - 24.8 °F 89% 30.45 in 10.0 mi Calm Calm - N/A   Clear
1:55 AM 29.7 °F - 24.4 °F 81% 30.45 in 10.0 mi Calm Calm - N/A   Clear
2:55 AM 26.8 °F - 24.3 °F 90% 30.45 in 10.0 mi Calm Calm - N/A   Clear
3:55 AM 27.5 °F - 24.4 °F 88% 30.43 in 10.0 mi Calm Calm - N/A   Clear
4:55 AM 26.6 °F - 24.4 °F 92% 30.44 in 10.0 mi Calm Calm - N/A   Clear
5:55 AM 27.3 °F - 24.3 °F 88% 30.44 in 10.0 mi Calm Calm - N/A   Clear
6:55 AM 27.7 °F - 24.6 °F 88% 30.44 in 10.0 mi Calm Calm - N/A   Clear
7:55 AM 30.4 °F - 25.7 °F 83% 30.45 in 10.0 mi Calm Calm - N/A   Clear
8:55 AM 33.4 °F - 28.0 °F 81% 30.44 in 10.0 mi Calm Calm - N/A   Clear
9:55 AM 37.4 °F 32.8 °F 25.5 °F 62% 30.44 in 10.0 mi ENE 5.8 mph - N/A   Clear
10:55 AM 40.5 °F 36.5 °F 26.4 °F 57% 30.43 in 10.0 mi NE 5.8 mph - N/A   Clear
11:55 AM 42.6 °F 39.0 °F 26.4 °F 53% 30.41 in 10.0 mi ESE 5.8 mph - N/A   Clear
12:55 PM 44.2 °F 41.8 °F 27.3 °F 51% 30.39 in 10.0 mi Variable 4.6 mph - N/A   Clear
1:55 PM 44.4 °F - 27.5 °F 52% 30.37 in 10.0 mi Calm Calm - N/A   Clear
2:55 PM 44.1 °F - 26.4 °F 50% 30.36 in 10.0 mi Calm Calm - N/A   Clear
3:55 PM 43.5 °F - 27.3 °F 53% 30.35 in 10.0 mi Calm Calm - N/A   Clear
4:55 PM 41.0 °F - 29.5 °F 64% 30.35 in 10.0 mi Calm Calm - N/A   Clear
5:55 PM 36.9 °F - 29.7 °F 75% 30.35 in 10.0 mi Calm Calm - N/A   Clear
6:55 PM 35.1 °F - 28.8 °F 78% 30.35 in 10.0 mi Calm Calm - N/A   Clear
7:55 PM 33.6 °F - 28.6 °F 82% 30.35 in 10.0 mi Calm Calm - N/A   Clear
8:55 PM 33.3 °F - 28.2 °F 82% 30.34 in 10.0 mi Calm Calm - N/A   Clear
9:55 PM 32.4 °F - 28.2 °F 85% 30.34 in 10.0 mi Calm Calm - N/A   Clear
10:55 PM 30.2 °F - 27.9 °F 91% 30.32 in 10.0 mi Calm Calm - N/A   Clear
11:55 PM 31.1 °F - 27.9 °F 88% 30.32 in 10.0 mi Calm Calm - N/A   Clear